Time,TemperatureF,DewpointF,PressureIn,WindDirection,WindDirectionDegrees,WindSpeedMPH,WindSpeedGustMPH,Humidity,HourlyPrecipIn,Conditions,Clouds,dailyrainin,SolarRadiationWatts/m^2,SoftwareType,DateUTC
2013-02-26 00:01:00,31.0,31.0,-100.00,WSW,247,18.0,23.0,100,0.00,,,0.00,0.000000,,2013-02-26 08:01:00,
2013-02-26 00:21:00,31.0,31.0,-100.00,WSW,247,18.0,23.0,100,0.00,,,0.00,0.000000,,2013-02-26 08:21:00,
2013-02-26 00:32:00,31.0,31.0,-100.00,WSW,247,18.0,23.0,100,0.00,,,0.00,0.000000,,2013-02-26 08:32:00,
2013-02-26 00:42:00,31.0,31.0,-100.00,WSW,247,18.0,23.0,100,0.00,,,0.00,0.000000,,2013-02-26 08:42:00,
2013-02-26 00:52:00,31.0,31.0,-100.00,WSW,247,18.0,23.0,100,0.00,,,0.00,0.000000,,2013-02-26 08:52:00,
2013-02-26 01:01:00,31.0,31.0,-100.00,WSW,243,16.0,23.0,100,0.00,,,0.00,0.000000,,2013-02-26 09:01:00,
2013-02-26 01:32:00,31.0,31.0,-100.00,WSW,243,16.0,23.0,100,0.00,,,0.00,0.000000,,2013-02-26 09:32:00,
2013-02-26 01:43:00,31.0,31.0,-100.00,WSW,243,16.0,23.0,100,0.00,,,0.00,0.000000,,2013-02-26 09:43:00,
2013-02-26 01:52:00,31.0,31.0,-100.00,WSW,243,16.0,23.0,100,0.00,,,0.00,0.000000,,2013-02-26 09:52:00,
2013-02-26 02:01:00,31.0,31.0,-100.00,SW,232,13.0,22.0,100,0.00,,,-99.99,0.000000,,2013-02-26 10:01:00,
2013-02-26 02:21:00,31.0,31.0,-100.00,SW,232,13.0,22.0,100,0.00,,,-99.99,0.000000,,2013-02-26 10:21:00,
2013-02-26 02:32:00,31.0,31.0,-100.00,SW,232,13.0,22.0,100,0.00,,,-99.99,0.000000,,2013-02-26 10:32:00,
2013-02-26 02:42:00,31.0,31.0,-100.00,SW,232,13.0,22.0,100,0.00,,,-99.99,0.000000,,2013-02-26 10:42:00,
2013-02-26 02:52:00,31.0,31.0,-100.00,SW,232,13.0,22.0,100,0.00,,,-99.99,0.000000,,2013-02-26 10:52:00,
2013-02-26 03:01:00,31.0,31.0,-100.00,SW,221,15.0,22.0,100,0.00,,,0.00,0.000000,,2013-02-26 11:01:00,
2013-02-26 03:22:00,31.0,31.0,-100.00,SW,221,15.0,22.0,100,0.00,,,0.00,0.000000,,2013-02-26 11:22:00,
2013-02-26 03:32:00,31.0,31.0,-100.00,SW,221,15.0,22.0,100,0.00,,,0.00,0.000000,,2013-02-26 11:32:00,
2013-02-26 03:42:00,31.0,31.0,-100.00,SW,221,15.0,22.0,100,0.00,,,0.00,0.000000,,2013-02-26 11:42:00,
2013-02-26 03:52:00,31.0,31.0,-100.00,SW,221,15.0,22.0,100,0.00,,,0.00,0.000000,,2013-02-26 11:52:00,
2013-02-26 04:01:00,31.0,31.0,-100.00,SW,221,13.0,20.0,100,0.00,,,0.00,0.000000,,2013-02-26 12:01:00,
2013-02-26 04:22:00,31.0,31.0,-100.00,SW,221,13.0,20.0,100,0.00,,,0.00,0.000000,,2013-02-26 12:22:00,
2013-02-26 04:32:00,31.0,31.0,-100.00,SW,221,13.0,20.0,100,0.00,,,0.00,0.000000,,2013-02-26 12:32:00,
2013-02-26 04:42:00,31.0,31.0,-100.00,SW,221,13.0,20.0,100,0.00,,,0.00,0.000000,,2013-02-26 12:42:00,
2013-02-26 04:53:00,31.0,31.0,-100.00,SW,221,13.0,20.0,100,0.00,,,0.00,0.000000,,2013-02-26 12:53:00,
2013-02-26 05:01:00,31.0,31.0,-100.00,SSW,205,11.0,18.0,100,0.00,,,0.00,0.000000,,2013-02-26 13:01:00,
2013-02-26 05:22:00,31.0,31.0,-100.00,SSW,205,11.0,18.0,100,0.00,,,0.00,0.000000,,2013-02-26 13:22:00,
2013-02-26 05:32:00,31.0,31.0,-100.00,SSW,205,11.0,18.0,100,0.00,,,0.00,0.000000,,2013-02-26 13:32:00,
2013-02-26 05:42:00,31.0,31.0,-100.00,SSW,205,11.0,18.0,100,0.00,,,0.00,0.000000,,2013-02-26 13:42:00,
2013-02-26 05:52:00,31.0,31.0,-100.00,SSW,205,11.0,18.0,100,0.00,,,0.00,0.000000,,2013-02-26 13:52:00,
2013-02-26 06:01:00,31.0,31.0,-100.00,SSW,204,11.0,17.0,100,0.00,,,0.00,0.000000,,2013-02-26 14:01:00,
2013-02-26 06:32:00,31.0,31.0,-100.00,SSW,204,11.0,17.0,100,0.00,,,0.00,0.000000,,2013-02-26 14:32:00,
2013-02-26 06:42:00,31.0,31.0,-100.00,SSW,204,11.0,17.0,100,0.00,,,0.00,0.000000,,2013-02-26 14:42:00,
2013-02-26 06:52:00,31.0,31.0,-100.00,SSW,204,11.0,17.0,100,0.00,,,0.00,0.000000,,2013-02-26 14:52:00,
2013-02-26 07:01:00,31.0,31.0,-100.00,SSW,193,12.0,18.0,100,0.00,,,0.00,0.000000,,2013-02-26 15:01:00,
2013-02-26 07:32:00,31.0,31.0,-100.00,SSW,193,12.0,18.0,100,0.00,,,0.00,0.000000,,2013-02-26 15:32:00,
2013-02-26 07:42:00,31.0,31.0,-100.00,SSW,193,12.0,18.0,100,0.00,,,0.00,0.000000,,2013-02-26 15:42:00,
2013-02-26 07:52:00,31.0,31.0,-100.00,SSW,193,12.0,18.0,100,0.00,,,0.00,0.000000,,2013-02-26 15:52:00,
2013-02-26 08:01:00,30.0,30.0,-100.00,SSW,192,13.0,18.0,100,0.00,,,0.00,0.000000,,2013-02-26 16:01:00,
2013-02-26 08:32:00,30.0,30.0,-100.00,SSW,192,13.0,18.0,100,0.00,,,0.00,0.000000,,2013-02-26 16:32:00,
2013-02-26 08:42:00,30.0,30.0,-100.00,SSW,192,13.0,18.0,100,0.00,,,0.00,0.000000,,2013-02-26 16:42:00,
2013-02-26 08:52:00,30.0,30.0,-100.00,SSW,192,13.0,18.0,100,0.00,,,0.00,0.000000,,2013-02-26 16:52:00,
2013-02-26 09:01:00,30.0,30.0,-100.00,South,188,11.0,18.0,100,0.00,,,0.00,32.000000,,2013-02-26 17:01:00,
2013-02-26 09:32:00,30.0,30.0,-100.00,South,188,11.0,18.0,100,0.00,,,0.00,32.000000,,2013-02-26 17:32:00,
2013-02-26 09:42:00,30.0,30.0,-100.00,South,188,11.0,18.0,100,0.00,,,0.00,32.000000,,2013-02-26 17:42:00,
2013-02-26 09:52:00,30.0,30.0,-100.00,South,188,11.0,18.0,100,0.00,,,0.00,32.000000,,2013-02-26 17:52:00,
2013-02-26 10:01:00,30.0,30.0,-100.00,South,180,7.0,17.0,100,0.00,,,0.00,107.000000,,2013-02-26 18:01:00,
2013-02-26 10:32:00,30.0,30.0,-100.00,South,180,7.0,17.0,100,0.00,,,0.00,107.000000,,2013-02-26 18:32:00,
2013-02-26 10:42:00,30.0,30.0,-100.00,South,180,7.0,17.0,100,0.00,,,0.00,107.000000,,2013-02-26 18:42:00,
2013-02-26 10:52:00,30.0,30.0,-100.00,South,180,7.0,17.0,100,0.00,,,0.00,107.000000,,2013-02-26 18:52:00,
2013-02-26 11:01:00,32.0,32.0,-100.00,South,180,0.0,12.0,100,0.00,,,0.00,189.000000,,2013-02-26 19:01:00,
2013-02-26 11:32:00,32.0,32.0,-100.00,South,180,0.0,12.0,100,0.00,,,0.00,189.000000,,2013-02-26 19:32:00,
2013-02-26 11:42:00,32.0,32.0,-100.00,South,180,0.0,12.0,100,0.00,,,0.00,189.000000,,2013-02-26 19:42:00,
2013-02-26 11:52:00,32.0,32.0,-100.00,South,180,0.0,12.0,100,0.00,,,0.00,189.000000,,2013-02-26 19:52:00,
2013-02-26 13:01:00,32.0,32.0,-100.00,SSW,192,0.0,0.0,100,-99.99,,,0.00,256.000000,,2013-02-26 21:01:00,
2013-02-26 13:31:00,32.0,32.0,-100.00,SSW,192,0.0,0.0,100,-99.99,,,0.00,256.000000,,2013-02-26 21:31:00,
2013-02-26 13:41:00,32.0,32.0,-100.00,SSW,192,0.0,0.0,100,-99.99,,,0.00,256.000000,,2013-02-26 21:41:00,
2013-02-26 13:51:00,32.0,32.0,-100.00,SSW,192,0.0,0.0,100,-99.99,,,0.00,256.000000,,2013-02-26 21:51:00,
2013-02-26 14:01:00,33.0,33.0,-100.00,South,175,0.0,0.0,100,0.00,,,0.00,319.000000,,2013-02-26 22:01:00,
2013-02-26 14:32:00,33.0,33.0,-100.00,South,175,0.0,0.0,100,0.00,,,0.00,319.000000,,2013-02-26 22:32:00,
2013-02-26 14:42:00,33.0,33.0,-100.00,South,175,0.0,0.0,100,0.00,,,0.00,319.000000,,2013-02-26 22:42:00,
2013-02-26 14:52:00,33.0,33.0,-100.00,South,175,0.0,0.0,100,0.00,,,0.00,319.000000,,2013-02-26 22:52:00,
2013-02-26 15:01:00,33.0,33.0,-100.00,SSW,204,5.0,0.0,100,0.00,,,0.00,480.000000,,2013-02-26 23:01:00,
2013-02-26 15:32:00,33.0,33.0,-100.00,SSW,204,5.0,0.0,100,0.00,,,0.00,480.000000,,2013-02-26 23:32:00,
2013-02-26 15:42:00,33.0,33.0,-100.00,SSW,204,5.0,0.0,100,0.00,,,0.00,480.000000,,2013-02-26 23:42:00,
2013-02-26 15:52:00,33.0,33.0,-100.00,SSW,204,5.0,0.0,100,0.00,,,0.00,480.000000,,2013-02-26 23:52:00,
2013-02-26 16:01:00,32.0,32.0,-100.00,SSW,195,11.0,23.0,100,0.00,,,0.00,313.000000,,2013-02-27 00:01:00,
2013-02-26 16:22:00,32.0,32.0,-100.00,SSW,195,11.0,23.0,100,0.00,,,0.00,313.000000,,2013-02-27 00:22:00,
2013-02-26 16:32:00,32.0,32.0,-100.00,SSW,195,11.0,23.0,100,0.00,,,0.00,313.000000,,2013-02-27 00:32:00,
2013-02-26 16:42:00,32.0,32.0,-100.00,SSW,195,11.0,23.0,100,0.00,,,0.00,313.000000,,2013-02-27 00:42:00,
2013-02-26 16:52:00,32.0,32.0,-100.00,SSW,195,11.0,23.0,100,0.00,,,0.00,313.000000,,2013-02-27 00:52:00,
2013-02-26 17:01:00,32.0,32.0,-100.00,South,188,17.0,22.0,100,0.00,,,0.00,93.000000,,2013-02-27 01:01:00,
2013-02-26 17:22:00,32.0,32.0,-100.00,South,188,17.0,22.0,100,0.00,,,0.00,93.000000,,2013-02-27 01:22:00,
2013-02-26 17:32:00,32.0,32.0,-100.00,South,188,17.0,22.0,100,0.00,,,0.00,93.000000,,2013-02-27 01:32:00,
2013-02-26 17:42:00,32.0,32.0,-100.00,South,188,17.0,22.0,100,0.00,,,0.00,93.000000,,2013-02-27 01:42:00,
2013-02-26 17:52:00,32.0,32.0,-100.00,South,188,17.0,22.0,100,0.00,,,0.00,93.000000,,2013-02-27 01:52:00,
2013-02-26 18:01:00,33.0,33.0,-100.00,South,181,12.0,22.0,100,0.00,,,0.00,48.000000,,2013-02-27 02:01:00,
2013-02-26 18:24:00,33.0,33.0,-100.00,South,181,12.0,22.0,100,0.00,,,0.00,48.000000,,2013-02-27 02:24:00,
2013-02-26 18:32:00,33.0,33.0,-100.00,South,181,12.0,22.0,100,0.00,,,0.00,48.000000,,2013-02-27 02:32:00,
2013-02-26 18:42:00,33.0,33.0,-100.00,South,181,12.0,22.0,100,0.00,,,0.00,48.000000,,2013-02-27 02:42:00,
2013-02-26 18:52:00,33.0,33.0,-100.00,South,181,12.0,22.0,100,0.00,,,0.00,48.000000,,2013-02-27 02:52:00,
2013-02-26 19:01:00,33.0,33.0,-100.00,SSW,198,16.0,21.0,100,0.00,,,0.00,13.000000,,2013-02-27 03:01:00,
2013-02-26 19:32:00,33.0,33.0,-100.00,SSW,198,16.0,21.0,100,0.00,,,0.00,13.000000,,2013-02-27 03:32:00,
2013-02-26 19:42:00,33.0,33.0,-100.00,SSW,198,16.0,21.0,100,0.00,,,0.00,13.000000,,2013-02-27 03:42:00,
2013-02-26 19:52:00,33.0,33.0,-100.00,SSW,198,16.0,21.0,100,0.00,,,0.00,13.000000,,2013-02-27 03:52:00,
2013-02-26 20:01:00,33.0,33.0,-100.00,South,187,18.0,24.0,100,0.00,,,0.00,0.000000,,2013-02-27 04:01:00,
2013-02-26 20:32:00,33.0,33.0,-100.00,South,187,18.0,24.0,100,0.00,,,0.00,0.000000,,2013-02-27 04:32:00,
2013-02-26 20:42:00,33.0,33.0,-100.00,South,187,18.0,24.0,100,0.00,,,0.00,0.000000,,2013-02-27 04:42:00,
2013-02-26 20:52:00,33.0,33.0,-100.00,South,187,18.0,24.0,100,0.00,,,0.00,0.000000,,2013-02-27 04:52:00,
2013-02-26 21:01:00,33.0,33.0,-100.00,SSW,193,18.0,23.0,100,0.00,,,0.00,0.000000,,2013-02-27 05:01:00,
2013-02-26 21:32:00,33.0,33.0,-100.00,SSW,193,18.0,23.0,100,0.00,,,0.00,0.000000,,2013-02-27 05:32:00,
2013-02-26 21:42:00,33.0,33.0,-100.00,SSW,193,18.0,23.0,100,0.00,,,0.00,0.000000,,2013-02-27 05:42:00,
2013-02-26 21:52:00,33.0,33.0,-100.00,SSW,193,18.0,23.0,100,0.00,,,0.00,0.000000,,2013-02-27 05:52:00,
2013-02-26 22:01:00,33.0,33.0,-100.00,South,186,18.0,23.0,100,0.00,,,0.00,0.000000,,2013-02-27 06:01:00,
2013-02-26 22:22:00,33.0,33.0,-100.00,South,186,18.0,23.0,100,0.00,,,0.00,0.000000,,2013-02-27 06:22:00,
2013-02-26 22:33:00,33.0,33.0,-100.00,South,186,18.0,23.0,100,0.00,,,0.00,0.000000,,2013-02-27 06:33:00,
2013-02-26 22:42:00,33.0,33.0,-100.00,South,186,18.0,23.0,100,0.00,,,0.00,0.000000,,2013-02-27 06:42:00,
2013-02-26 22:52:00,33.0,33.0,-100.00,South,186,18.0,23.0,100,0.00,,,0.00,0.000000,,2013-02-27 06:52:00,
2013-02-26 23:01:00,33.0,33.0,-100.00,South,181,18.0,23.0,100,0.00,,,0.00,0.000000,,2013-02-27 07:01:00,
2013-02-26 23:22:00,33.0,33.0,-100.00,South,181,18.0,23.0,100,0.00,,,0.00,0.000000,,2013-02-27 07:22:00,
2013-02-26 23:32:00,33.0,33.0,-100.00,South,181,18.0,23.0,100,0.00,,,0.00,0.000000,,2013-02-27 07:32:00,
2013-02-26 23:42:00,33.0,33.0,-100.00,South,181,18.0,23.0,100,0.00,,,0.00,0.000000,,2013-02-27 07:42:00,
2013-02-26 23:52:00,33.0,33.0,-100.00,South,181,18.0,23.0,100,0.00,,,0.00,0.000000,,2013-02-27 07:52:00,